User: anonymous
Location: Owatonna
(44.0840°N, 93.2260°W)
Time: 07:27:38
(UTC-05:00)
Language:

Tiangong 1 - Orbit

View from above orbital plane
View from above orbital plane
View from above satellite
View from above satellite

Ground track
Ground track

The orbit data is extracted from the following two-line orbital elements,

1 37820U 11053A   14274.63250000  .00054471  00000-0  46903-3 0  4467
2 37820 042.7694 030.7216 0006929 342.8025 202.3956 15.68438310172751
Epoch (UTC): 01 October 2014 15:10:48
Eccentricity: 0.0006929
inclination: 42.7694°
perigee height: 359 km
apogee height: 368 km
right ascension of ascending node: 30.7216°
argument of perigee: 342.8025°
revolutions per day: 15.68438310
mean anomaly at epoch: 202.3956°
orbit number at epoch: 17275

The dashed part of the orbit path shows where the satellite is in the earth's shadow,  

DLR